EW0600 Weather Reports


Display with metric or nautical units.
time (UTC)temp
F
wind
direction
speed
MPH
gust
MPH
rain 1hr
in
rain 24hr
in
rain mn
in
humidity
%
barometer
mb
20260831225649 85 311 4.0 7.0 0.00 0.00 0.00 68 1007.2
20260831224651 86 283 2.0 6.0 0.00 0.00 0.00 65 1006.9
20260831224502 86 299 2.0 5.0 0.00 0.00 0.00 64 1006.9
20260831223630 85 293 3.0 6.0 0.00 0.00 0.00 63 1007.0
20260831223103 85 288 3.0 7.0 0.00 0.00 0.00 63 1007.0
20260831222556 86 283 2.0 4.0 0.00 0.00 0.00 65 1006.9
20260831221618 86 301 2.0 4.0 0.00 0.00 0.00 67 1006.8
20260831221502 86 295 3.0 5.0 0.00 0.00 0.00 65 1006.8
20260831220556 87 285 3.0 5.0 0.00 0.00 0.00 63 1006.7
20260831220104 86 284 4.0 7.0 0.00 0.00 0.00 58 1006.7
20260831214503 86 287 4.0 8.0 0.00 0.00 0.00 60 1006.7
20260831214403 87 287 4.0 7.0 0.00 0.00 0.00 60 1006.7
20260831213411 88 274 4.0 7.0 0.00 0.00 0.00 54 1006.5
20260831213106 87 278 3.0 8.0 0.00 0.00 0.00 56 1006.5
20260831211505 87 285 4.0 9.0 0.00 0.00 0.00 58 1006.5
20260831211210 87 282 4.0 8.0 0.00 0.00 0.00 62 1006.4
20260831210134 87 266 4.0 7.0 0.00 0.00 0.00 62 1006.4
20260831210103 87 304 5.0 8.0 0.00 0.00 0.00 61 1006.4
20260831205058 87 270 3.0 9.0 0.00 0.00 0.00 63 1006.3
20260831204509 86 298 5.0 10.0 0.00 0.00 0.00 64 1006.3
20260831204021 87 296 5.0 9.0 0.00 0.00 0.00 65 1006.2
20260831203103 86 302 5.0 8.0 0.00 0.00 0.00 65 1006.4
20260831203019 87 290 4.0 8.0 0.00 0.00 0.00 64 1006.3
20260831201953 87 257 3.0 8.0 0.00 0.00 0.00 66 1006.3
20260831201502 86 281 3.0 9.0 0.00 0.00 0.00 67 1006.4
20260831200932 87 320 3.0 6.0 0.00 0.00 0.00 67 1006.4
20260831195902 87 277 3.0 7.0 0.00 0.00 0.00 67 1006.3
20260831194908 87 275 3.0 7.0 0.00 0.00 0.00 66 1006.4
20260831194503 86 290 3.0 8.0 0.00 0.00 0.00 65 1006.4
20260831193857 86 301 3.0 7.0 0.00 0.00 0.00 67 1006.3
20260831193103 86 322 2.0 8.0 0.00 0.00 0.00 63 1006.3
20260831191502 85 314 4.0 10.0 0.00 0.00 0.00 63 1006.2
20260831190608 86 271 2.0 6.0 0.00 0.00 0.00 69 1006.2
20260831185552 85 316 3.0 8.0 0.00 0.00 0.00 70 1006.2
20260831184502 84 321 6.0 11.0 0.00 0.00 0.00 65 1006.2
20260831183400 84 325 5.0 10.0 0.00 0.00 0.00 69 1006.2
20260831183102 83 331 4.0 11.0 0.00 0.00 0.00 73 1006.2
20260831182333 84 297 5.0 10.0 0.00 0.00 0.00 71 1006.2
20260831181503 83 290 5.0 11.0 0.00 0.00 0.00 73 1006.2
20260831181353 84 311 4.0 10.0 0.00 0.00 0.00 73 1006.2
20260831180347 83 325 1.0 6.0 0.00 0.00 0.00 78 1006.2
20260831175342 83 330 2.0 6.0 0.00 0.00 0.00 79 1006.3
20260831174502 82 350 3.0 7.0 0.00 0.00 0.00 80 1006.5
20260831174343 83 34 3.0 6.0 0.00 0.00 0.00 80 1006.5
20260831173403 82 275 3.0 6.0 0.00 0.00 0.00 84 1006.6
20260831173105 81 314 3.0 7.0 0.00 0.00 0.00 83 1006.6
20260831172359 81 276 5.0 9.0 0.00 0.00 0.00 82 1006.7
20260831171503 81 312 6.0 10.0 0.00 0.00 0.00 83 1006.7
20260831171350 81 299 6.0 9.0 0.00 0.00 0.00 84 1006.6
20260831170403 81 316 6.0 10.0 0.00 0.00 0.00 83 1006.6
20260831170107 81 292 7.0 11.0 0.00 0.00 0.00 84 1006.7
20260831165408 81 322 7.0 11.0 0.00 0.00 0.00 82 1006.6
20260831164502 81 322 6.0 12.0 0.00 0.00 0.00 84 1006.6
20260831164355 81 326 5.0 11.0 0.00 0.00 0.00 84 1006.6
20260831163002 80 340 5.0 8.0 0.00 0.00 0.00 84 1006.4
20260831162140 81 289 4.0 6.0 0.00 0.00 0.00 85 1006.3
20260831161605 80 307 3.0 7.0 0.00 0.00 0.00 86 1006.3
20260831161113 80 336 3.0 7.0 0.00 0.00 0.00 86 1006.1
20260831160125 80 329 4.0 8.0 0.00 0.00 0.00 86 1006.0
20260831160008 79 341 5.0 9.0 0.00 0.00 0.00 87 1006.2
20260831155141 79 329 5.0 8.0 0.00 0.00 0.00 87 1006.1
20260831154610 79 308 5.0 9.0 0.00 0.00 0.00 87 1006.2
20260831154135 80 328 4.0 8.0 0.00 0.00 0.00 86 1006.0
20260831153105 79 297 4.0 8.0 0.00 0.00 0.00 89 1006.0
20260831153003 79 287 3.0 9.0 0.00 0.00 0.00 89 1006.1
20260831152103 79 316 4.0 7.0 0.00 0.00 0.00 88 1006.0
20260831151604 78 296 5.0 8.0 0.00 0.00 0.00 88 1006.1
20260831151041 78 326 4.0 9.0 0.00 0.00 0.00 89 1005.8
20260831150059 78 285 5.0 9.0 0.00 0.00 0.00 89 1006.0
20260831150007 77 288 5.0 10.0 0.00 0.00 0.00 90 1006.0
20260831144502 76 284 4.0 9.0 0.00 0.00 0.00 90 1005.9
20260831143956 77 293 4.0 8.0 0.00 0.00 0.00 90 1005.7
20260831142946 76 280 4.0 6.0 0.00 0.00 0.00 91 1005.5
20260831141922 76 281 4.0 6.0 0.00 0.00 0.00 91 1005.2
20260831140941 75 285 5.0 8.0 0.00 0.00 0.00 91 1005.1
20260831135911 75 276 3.0 8.0 0.00 0.00 0.00 91 1005.1
20260831133753 74 279 3.0 7.0 0.00 0.00 0.00 92 1004.8
20260831133102 74 279 5.0 8.0 0.00 0.00 0.00 92 1004.9
20260831132753 74 227 3.0 7.0 0.00 0.00 0.00 93 1004.8
20260831131503 73 243 5.0 7.0 0.00 0.00 0.00 93 1004.7
20260831130614 73 237 3.0 5.0 0.00 0.00 0.00 94 1004.6
20260831125547 72 246 2.0 5.0 0.00 0.00 0.00 94 1004.5
20260831124504 72 233 3.0 4.0 0.00 0.00 0.00 94 1004.4
20260831123436 72 238 2.0 4.0 0.00 0.00 0.00 95 1004.2
20260831123103 71 226 2.0 5.0 0.00 0.00 0.00 95 1004.3
20260831122427 71 227 2.0 4.0 0.00 0.00 0.00 95 1004.3
20260831121502 71 222 3.0 5.0 0.00 0.00 0.00 95 1004.2
20260831121445 71 243 3.0 4.0 0.00 0.00 0.00 95 1004.1
20260831120420 71 233 2.0 4.0 0.00 0.00 0.00 95 1004.1
20260831115424 71 243 2.0 4.0 0.00 0.00 0.00 95 1004.0
20260831114505 71 245 3.0 5.0 0.00 0.00 0.00 95 1003.8
20260831113320 71 235 2.0 6.0 0.00 0.00 0.00 95 1003.5
20260831113102 71 238 2.0 5.0 0.00 0.00 0.00 95 1003.5
20260831111503 71 212 4.0 7.0 0.00 0.00 0.00 94 1003.4
20260831111133 72 231 3.0 5.0 0.00 0.00 0.00 94 1003.4
20260831110108 72 225 3.0 6.0 0.00 0.00 0.00 94 1003.3
20260831104509 72 177 4.0 6.0 0.00 0.00 0.00 95 1003.1
20260831103907 72 216 2.0 4.0 0.00 0.00 0.00 94 1003.0
20260831103102 72 225 3.0 7.0 0.00 0.00 0.00 94 1003.2
20260831102839 72 221 3.0 7.0 0.00 0.00 0.00 94 1003.2
20260831101850 73 218 4.0 8.0 0.00 0.00 0.00 94 1003.1
20260831101502 72 223 5.0 9.0 0.00 0.00 0.00 94 1003.2
20260831100906 73 212 4.0 8.0 0.00 0.00 0.00 94 1003.0
20260831100104 72 227 3.0 8.0 0.00 0.00 0.00 94 1003.0
20260831095836 73 219 4.0 7.0 0.00 0.00 0.00 94 1003.0
20260831094804 73 205 4.0 7.0 0.00 0.00 0.00 94 1002.9
20260831094502 72 191 5.0 9.0 0.00 0.00 0.00 94 1002.9
20260831093102 72 187 5.0 9.0 0.00 0.00 0.00 94 1003.2
20260831091611 72 224 5.0 8.0 0.00 0.00 0.00 94 1003.0
20260831091445 72 229 4.0 7.0 0.00 0.00 0.00 94 1003.0
20260831090452 72 202 4.0 7.0 0.00 0.00 0.00 94 1002.8
20260831090002 72 200 4.0 8.0 0.00 0.00 0.00 94 1002.9
20260831084607 72 219 4.0 9.0 0.00 0.00 0.00 94 1003.0
20260831083246 73 229 6.0 9.0 0.00 0.00 0.00 94 1002.8
20260831083007 72 205 6.0 10.0 0.00 0.00 0.00 94 1002.8
20260831082241 73 188 5.0 9.0 0.00 0.00 0.00 94 1002.7
20260831081607 72 203 5.0 8.0 0.00 0.00 0.00 94 1002.7
20260831081231 73 193 4.0 9.0 0.00 0.00 0.00 94 1002.7
20260831080225 73 193 4.0 9.0 0.00 0.00 0.00 94 1002.7
20260831075230 73 208 4.0 8.0 0.00 0.00 0.00 93 1002.7
20260831074604 72 180 5.0 9.0 0.00 0.00 0.00 93 1002.7
20260831074226 73 201 5.0 9.0 0.00 0.00 0.00 93 1002.7
20260831073237 73 206 5.0 10.0 0.00 0.00 0.00 93 1002.6
20260831073009 72 149 6.0 11.0 0.00 0.00 0.00 93 1002.6
20260831072258 73 198 4.0 10.0 0.00 0.00 0.00 93 1002.6
20260831071603 72 205 4.0 9.0 0.00 0.00 0.00 93 1002.7
20260831071250 73 107 4.0 9.0 0.00 0.00 0.00 93 1002.7
20260831070308 72 156 3.0 9.0 0.00 0.00 0.00 93 1002.9
20260831070003 72 174 3.0 10.0 0.00 0.00 0.00 93 1003.0
20260831064603 72 129 3.0 8.0 0.00 0.00 0.00 93 1003.2
20260831064155 72 131 4.0 7.0 0.00 0.00 0.00 93 1003.2
20260831063208 72 158 3.0 6.0 0.00 0.00 0.00 93 1003.2
20260831063002 72 150 4.0 7.0 0.00 0.00 0.00 93 1003.3
20260831062143 72 143 3.0 9.0 0.00 0.00 0.00 93 1003.3
20260831061602 72 122 4.0 10.0 0.00 0.00 0.00 93 1003.4
20260831061108 72 154 2.0 9.0 0.00 0.00 0.00 93 1003.5
20260831060125 72 132 2.0 6.0 0.00 0.00 0.00 93 1003.6
20260831060004 72 146 2.0 6.0 0.00 0.00 0.00 93 1003.7
20260831055121 72 137 2.0 5.0 0.00 0.00 0.00 93 1003.7
20260831054603 72 127 2.0 6.0 0.00 0.00 0.00 93 1003.8
20260831053007 73 154 3.0 6.0 0.00 0.00 0.00 92 1003.8
20260831053003 72 154 3.0 7.0 0.00 0.00 0.00 92 1003.8
20260831052024 73 125 3.0 6.0 0.00 0.00 0.00 92 1003.9
20260831050002 73 109 2.0 8.0 0.00 0.00 0.00 92 1004.2
20260831045848 73 141 2.0 8.0 0.00 0.00 0.00 92 1004.1
20260831044834 73 109 3.0 8.0 0.00 0.00 0.00 92 1004.1
20260831044607 73 188 3.0 9.0 0.00 0.00 0.00 92 1004.1
20260831043849 73 122 3.0 6.0 0.00 0.00 0.00 92 1004.1
20260831043003 73 188 4.0 7.0 0.00 0.00 0.00 91 1004.3
20260831042908 73 120 3.0 8.0 0.00 0.00 0.00 91 1004.2
20260831041645 73 169 5.0 10.0 0.00 0.00 0.00 91 1004.2
20260831040003 73 158 4.0 14.0 0.00 0.00 0.00 91 1004.3
20260831035639 74 127 4.0 13.0 0.00 0.00 0.00 91 1004.1
20260831034606 73 155 6.0 12.0 0.00 0.00 0.00 91 1004.1
20260831033503 74 120 4.0 9.0 0.00 0.00 0.00 91 1004.1
20260831032511 74 229 4.0 9.0 0.00 0.00 0.00 91 1004.2
20260831031505 74 156 4.0 10.0 0.00 0.00 0.00 90 1004.3
20260831031448 74 190 5.0 9.0 0.00 0.00 0.00 90 1004.2
20260831030438 74 162 6.0 12.0 0.00 0.00 0.00 90 1004.1
20260831030108 74 135 6.0 13.0 0.00 0.00 0.00 90 1004.0
20260831025404 75 132 5.0 12.0 0.00 0.00 0.00 89 1003.9
20260831024502 74 152 6.0 12.0 0.00 0.00 0.00 89 1004.0
20260831024344 75 143 6.0 14.0 0.00 0.00 0.00 89 1004.0
20260831023346 75 152 6.0 14.0 0.00 0.00 0.00 88 1004.0
20260831023102 75 147 8.0 15.0 0.00 0.00 0.00 88 1004.2
20260831022339 75 155 5.0 14.0 0.00 0.00 0.00 87 1004.2
20260831021507 75 147 5.0 15.0 0.00 0.00 0.00 87 1004.1
20260831021353 76 151 6.0 14.0 0.00 0.00 0.00 87 1004.1
20260831020412 76 136 6.0 11.0 0.00 0.00 0.00 86 1004.1
20260831015419 76 129 4.0 11.0 0.00 0.00 0.00 86 1004.2
20260831014506 76 148 5.0 10.0 0.00 0.00 0.00 86 1004.2
20260831013307 77 137 4.0 10.0 0.00 0.00 0.00 85 1004.1
20260831013111 77 131 3.0 11.0 0.00 0.00 0.00 84 1004.1
20260831012318 78 145 5.0 10.0 0.00 0.00 0.00 84 1003.8
20260831011507 78 136 5.0 11.0 0.00 0.00 0.00 83 1003.9
20260831011317 78 140 4.0 10.0 0.00 0.00 0.00 82 1003.8
20260831010241 79 142 3.0 12.0 0.00 0.00 0.00 81 1003.8
20260831010122 78 136 4.0 9.0 0.00 0.00 0.00 80 1003.8
20260831005250 79 169 5.0 12.0 0.00 0.00 0.00 79 1003.7
20260831004502 80 171 4.0 13.0 0.00 0.00 0.00 77 1003.4
20260831003103 81 150 6.0 16.0 0.00 0.00 0.00 74 1003.6
20260831003056 81 117 6.0 15.0 0.00 0.00 0.00 74 1003.6
20260831002040 82 130 3.0 6.0 0.00 0.00 0.00 75 1003.4
20260831001502 82 98 3.0 9.0 0.00 0.00 0.00 75 1003.3
20260831001057 83 136 3.0 8.0 0.00 0.00 0.00 74 1003.1
20260831000116 82 121 4.0 10.0 0.00 0.00 0.00 74 1003.0
20260831000106 83 121 4.0 9.0 0.00 0.00 0.00 74 1003.0
20260830234502 84 131 4.0 12.0 0.00 0.00 0.00 73 1002.9
20260830234017 84 153 5.0 11.0 0.00 0.00 0.00 73 1002.8
20260830233102 84 169 4.0 11.0 0.00 0.00 0.00 73 1003.0
20260830233024 85 141 4.0 12.0 0.00 0.00 0.00 74 1003.0
20260830232008 85 120 6.0 13.0 0.00 0.00 0.00 72 1002.9
20260830231503 85 188 6.0 14.0 0.00 0.00 0.00 71 1003.0
20260830231007 86 129 6.0 13.0 0.00 0.00 0.00 71 1003.0
20260830230107 86 87 7.0 12.0 0.00 0.00 0.00 69 1003.0
20260830230021 86 143 5.0 15.0 0.00 0.00 0.00 70 1003.0